Flag for Germany Weather past 2 weeks in Euskirchen, North Rhine-Westphalia, Germany

Now
63 °F

Broken clouds.


Feels Like: 63 °F
Forecast: 49 / 62 °F
Wind: 9 mph from South

Location: Noervenich

Current Time: Aug 22, 2014 at 12:40:30 PM

Latest Report: Aug 22, 2014 at 11:20 AM


Visibility: N/A

Pressure: 29.92 "Hg

Humidity: 56%

Dew point: 46 °F

Location of EuskirchenLocation

Historic Weather in Euskirchen — Graph

°F

Euskirchen temperature yesterday

Maximum temperature yesterday: 66 °F (at 2:20 PM)
Minimum temperature yesterday: 46 °F (at 5:20 AM)
Average temperature yesterday: 57 °F

Past Weeks' High & Low Weather Summary

 TemperatureHumidityPressure
High79 °F (Aug 8, 12:20 PM)100% (Aug 13, 4:20 PM)30.12 "Hg (Aug 13, 4:20 PM)
Low45 °F (Aug 20, 6:20 AM)40% (Aug 21, 3:20 PM)29.59 "Hg (Aug 10, 6:20 PM)
Average61 °F76%29.88 "Hg
* Reported Aug 7 11:20 AM — Aug 22 11:20 AM, Euskirchen, Weather by CustomWeather, © 2014

Note: Actual official high and low records may vary slightly from our data, if they occured in-between our weather recording intervals... More about our weather records

Advertising

Euskirchen weather history for previous 24 hours

 ConditionsComfort  
Time TempWeatherWind HumidityBarometerVisibility
11:20 AM
Aug 22
63 °FBroken clouds.9 mph56%29.92 "HgN/A
10:20 AM61 °FBroken clouds.7 mph59%29.92 "HgN/A
9:20 AM59 °FPartly sunny.5 mph63%29.92 "HgN/A
8:20 AM57 °FPartly sunny.7 mph67%29.92 "HgN/A
7:20 AM54 °FPartly cloudy.6 mph77%29.92 "HgN/A
6:20 AM54 °FPassing clouds.6 mph77%29.92 "HgN/A
5:20 AM54 °FPassing clouds.5 mph77%29.95 "HgN/A
4:20 AM55 °FPassing clouds.2 mph72%29.95 "HgN/A
3:20 AM54 °FPassing clouds.1 mph82%29.95 "HgN/A
2:20 AM55 °FPassing clouds.3 mph72%29.98 "HgN/A
1:20 AM55 °FPassing clouds.3 mph77%29.98 "HgN/A
12:20 AM55 °FPassing clouds.2 mph77%29.98 "HgN/A
11:20 PM
Aug 21
57 °FPassing clouds.1 mph72%29.98 "HgN/A
10:20 PM57 °FPassing clouds.3 mph72%29.98 "HgN/A
9:20 PM57 °FPartly sunny.2 mph77%29.98 "HgN/A
8:20 PM59 °FBroken clouds.3 mph68%29.98 "HgN/A
7:20 PM61 °FBroken clouds.2 mph63%29.98 "HgN/A
6:20 PM63 °FPartly sunny.2 mph52%29.98 "HgN/A
5:20 PM63 °FBroken clouds.3 mph56%30.01 "HgN/A
4:20 PM63 °FScattered showers. Partly sunny.9 mph52%30.01 "HgN/A
3:20 PM64 °FPartly sunny.10 mph40%30.01 "HgN/A
2:20 PM66 °FScattered clouds.8 mph43%30.01 "HgN/A
1:20 PM64 °FPassing clouds.8 mph46%30.04 "HgN/A
12:20 PM63 °FScattered clouds.8 mph52%30.04 "HgN/A
Weather by CustomWeather, © 2014

See weather overviewHow to use our weather pages